Regional Weather Roundup
Issued by NWS Sioux Falls, SD

Home | Current Version | Previous Version | Text Only | Print | Product List | Glossary Off
Versions: 1 2 3 4 5 6 7 8 9 10 11 12 13 14 15 16 17 18 19 20 21 22 23 24 25 26 27 28 29 30 31 32 33 34 35 36 37 38 39 40 41 42 43 44 45 46 47 48 49 50

000
ASUS43 KFSD 190602
RWRFSD

WEATHER ROUNDUP FOR SE SOUTH DAKOTA/SW MINNESOTA/NW IOWA
NATIONAL WEATHER SERVICE SIOUX FALLS SD
1200 AM CST FRI DEC 19 2014

NOTE: "FAIR" INDICATES FEW OR NO CLOUDS BELOW 12,000 FEET WITH NO
SIGNIFICANT WEATHER AND OR OBSTRUCTIONS TO VISIBILITY.


SDZ038>040-050-052>070-190700-
SOUTHEAST SOUTH DAKOTA

CITY           SKY/WX    TMP DP  RH WIND       PRES   REMARKS
CHAMBERLAIN    NOT AVBL
HURON          CLOUDY    27  24  89 S7        30.14S FOG     WCI  19
6HR MIN TEMP:  26; 6HR MAX TEMP:  27;

MADISON        CLOUDY    25  25 100 S9        30.15R WCI  15
MITCHELL       CLOUDY    29  26  89 S8        30.17R WCI  21
6HR MIN TEMP:  27; 6HR MAX TEMP:  29;

SIOUX FALLS    CLOUDY    27  24  89 S8        30.18R WCI  19
6HR MIN TEMP:  27; 6HR MAX TEMP:  27;

WINNER         FAIR      25  20  81 VRB3      30.08R
YANKTON        CLOUDY    28  25  86 S8        30.20S WCI  20
$$

MNZ071-072-080-081-089-090-097-098-190700-
SOUTHWEST MINNESOTA

CITY           SKY/WX    TMP DP  RH WIND       PRES   REMARKS
FAIRMONT       CLOUDY    25  19  80 S8        30.23S WCI  16
JACKSON        CLOUDY    27  23  86 S6        30.21S WCI  20
LUVERNE        CLOUDY    30  27  86 S7        30.19S WCI  23
MARSHALL       CLOUDY    25  21  86 SE5       30.20S WCI  19
6HR MIN TEMP:  21; 6HR MAX TEMP:  25;

MONTEVIDEO     CLOUDY    21  21 100 S7        30.22S WCI  13
PIPESTONE      CLOUDY    27  25  93 S3        30.16S FOG
REDWOOD FALLS  CLOUDY    24  20  84 SE9       30.23R WCI  14
TRACY          CLOUDY    27  25  91 S3        30.20S
WINDOM         CLOUDY    25  23  93 CALM      30.21R
WORTHINGTON    CLOUDY    25  23  93 S8        30.20S WCI  16
$$

IAZ001>003-012>014-020>022-031-032-NEZ013-014-SDZ071-190700-
NORTHWEST IOWA

CITY           SKY/WX    TMP DP  RH WIND       PRES   REMARKS
DENISON        CLOUDY    30  28  93 S7        30.22S WCI  23
ESTHERVILLE    CLOUDY    25  21  85 S9        30.22R WCI  15
SIOUX CITY     CLOUDY    31  26  82 S6        30.23S WCI  25
6HR MIN TEMP:  30; 6HR MAX TEMP:  31;

SPENCER        CLOUDY    28  24  85 S8        30.22R WCI  20
6HR MIN TEMP:  27; 6HR MAX TEMP:  28;

$$

ABBREVIATIONS USED IN REMARKS
   TC - TEMPERATURE IN CELSIUS
  WCI - WIND CHILL INDEX
   HX - HEAT INDEX
  VSB - VISIBILITY




USA.gov is the U.S. government's official web portal to all federal, state and local government web resources and services.